Regional Weather Roundup
Issued by NWS Boston, MA

Current Version | Previous Version | Text Only | Print | Product List | Glossary Off
Versions: 1 2 3 4 5 6 7 8 9 10 11 12 13 14 15 16 17 18 19 20 21 22 23 24 25 26 27 28 29 30 31 32 33 34 35 36 37 38 39 40 41 42 43 44 45 46 47 48 49 50
820 ASUS41 KBOX 230310 RWRBOX REGIONAL WEATHER ROUNDUP NATIONAL WEATHER SERVICE TAUNTON MA 1000 PM EST WED NOV 22 2017 NOTE: "FAIR" INDICATES FEW OR NO CLOUDS BELOW 12,000 FEET WITH NO SIGNIFICANT WEATHER AND/OR OBSTRUCTIONS TO VISIBILITY. MAZALL-230400- EASTERN MASSACHUSETTS CITY SKY/WX TMP DP RH WIND PRES REMARKS BOSTON PTCLDY 39 30 70 NW16G24 29.89R WCI 30 BEVERLY CLEAR 38 29 70 NW13 29.88R WCI 30 LAWRENCE PTCLDY 40 27 59 NW9G22 29.91R BEDFORD MOCLDY 39 30 70 NW12 29.89S WCI 32 BLUE HILL NOT AVBL NORWOOD CLOUDY 41 33 73 NW10 29.90S MARSHFIELD CLEAR 41 32 70 NW12G23 29.88S PLYMOUTH MOCLDY 41 33 73 NW9 29.89R TAUNTON MOCLDY 39 31 72 NW6 29.90R NEW BEDFORD CLEAR 38 30 73 NW12G17 29.89R WCI 30 $$ MAZALL-230400- CAPE COD AND THE ISLANDS CITY SKY/WX TMP DP RH WIND PRES REMARKS FALMOUTH MOCLDY 39 34 81 NW12G18 29.89R WCI 32 HYANNIS CLOUDY 42 33 70 NW17G29 29.84R CHATHAM CLOUDY 42 35 76 NW13G29 29.85R PROVINCETOWN CLOUDY 42 34 73 NW29G38 29.86R WCI 31 NANTUCKET PTCLDY 41 36 82 NW26G39 29.85R WCI 30 MARTHAS VNYRD PTCLDY 41 30 65 NW20G39 29.89R WCI 32 $$ MAZALL-230400- CENTRAL AND WESTERN MASSACHUSETTS CITY SKY/WX TMP DP RH WIND PRES REMARKS WORCESTER CLOUDY 35 26 69 NW12G22 29.89R WCI 27 FITCHBURG CLOUDY 41 30 65 NW13 29.91S ORANGE CLOUDY 35 29 78 N12 29.93S WCI 27 SPRINGFIELD MOCLDY 39 23 54 NW12G22 29.95R WCI 31 WESTFIELD CLOUDY 38 27 64 NW12 29.97R WCI 30 NORTH ADAMS CLOUDY 35 22 58 W13G21 30.00R WCI 26 PITTSFIELD CLOUDY 32 19 58 W17G28 29.98R WCI 21 $$ RIZALL-230400- RHODE ISLAND CITY SKY/WX TMP DP RH WIND PRES REMARKS PROVIDENCE PTCLDY 40 29 64 NW8G20 29.93R NEWPORT PTCLDY 40 30 67 NW20G31 29.91R WCI 30 BLOCK ISLAND CLEAR 40 30 67 NW16G26 29.95R WCI 31 SMITHFIELD CLEAR 37 28 70 NW9G17 29.90S WCI 30 WESTERLY PTCLDY 39 30 70 VRB5 29.96R $$ CTZALL-230400- CONNECTICUT CITY SKY/WX TMP DP RH WIND PRES REMARKS BRADLEY INTL MOCLDY 38 25 59 N9G20 29.98R WCI 31 HARTFORD CLOUDY 40 24 53 NW13G20 30.00R BRIDGEPORT CLOUDY 40 25 55 NW13 30.02R DANBURY PTCLDY 37 24 59 NW10G16 30.03R WCI 30 GROTON PTCLDY 39 27 62 NW10G23 29.96R NEW HAVEN PTCLDY 39 24 55 NW9 30.01R CHESTER MOCLDY 37 25 60 NW15G22 29.97R WCI 28 MERIDEN CLEAR 37 23 56 NW13G20 30.01R WCI 29 WILLIMANTIC CLOUDY 40 28 62 W6 29.97R OXFORD MOCLDY 35 23 61 NW8G22 29.99R WCI 29 $$ MEZ002-015-021-024-NHZ003-005-008-011-012-014-VTZ005-008-230400- NORTHERN NEW ENGLAND CITY SKY/WX TMP DP RH WIND PRES REMARKS PORTLAND ME MOCLDY 37 30 75 NW10G18 29.84R WCI 30 BANGOR ME LGT RAIN 37 35 92 NW12 29.74F WCI 29 CONCORD NH CLOUDY 36 26 67 NW15G25 29.89F WCI 27 MANCHESTER NH PTCLDY 38 24 57 NW17G29 29.89S WCI 28 NASHUA NH CLOUDY 38 27 64 NW21G31 29.91S WCI 28 PORTSMOUTH NH PTCLDY 37 27 68 NW14 29.85R WCI 28 JAFFREY NH CLOUDY 36 26 67 NW12G22 29.89F WCI 28 KEENE NH CLOUDY 36 24 62 NW10G23 29.95R WCI 28 BURLINGTON VT CLOUDY 31 20 63 NW17 30.07R WCI 19 MT. WASHINGTON SNOWSHWR 10 10 100 NW58G66 N/A VSB 1/16WCI -18 $$ NYZ052-076-230400- EASTERN NEW YORK CITY SKY/WX TMP DP RH WIND PRES REMARKS ALBANY CLOUDY 35 20 54 NW18G30 30.07S WCI 24 NEW YORK CITY CLEAR 39 24 55 NW18 30.06R WCI 30 $$ ANZALL-230400- MARINE OBSERVATIONS STATION/POSITION TIME TEMP WIND PRES VSBY WAVE AIR SEA DIR/SP/G HT/PER (UTC) (F) (DEG/KT/KT) (MB) (MI) (FT/S) BOSTON BUOY 0150 42 51 310/ 27/ 31 1009.6 5/ 5 BUZZARDS BAY 0200 42 330/ 26/ 29 1012.3R NANTUCKET SOUND 0150 43 49 320/ 25/ 33 1009.8 4/ 4 MASS BAY-STELLWA 0204 42 49 320/ 23/ 31 1010.2R 4/ 4 ISLE OF SHOALS 0200 39 310/ 28/ 30 1009.7R S OF BLOCK IS NOT AVBL $$ ......................KEY......................... SKY/WX - SKY CONDITION/PRESENT WEATHER TMP - TEMPERATURE IN FAHRENHEIT DWPT - DEWPOINT IN FAHRENHEIT RH - RELATIVE HUMIDITY IN PERCENT WIND - DIRECTION AND SPEED IN MPH PRES - MEAN SEA LEVEL PRESSURE IN INCHES OF HG WCI - WIND CHILL INDEX VSB - VISIBILITY IN MILES HX - HEAT INDEX TC - TEMPERATURE IN CELSIUS VRB - VARIABLE WIND DIRECTION N/A - NOT AVAILABLE

USA.gov is the U.S. government's official web portal to all federal, state and local government web resources and services.